Hourly Weather Allensbach

Today, 2 December, Wednesday

Time Temperature Precipitation Wind Pressure Humidity
00:00 0°C° 0.1 mm 0 mps 722 mmHg 98%
01:00 0°C° 0 mm 0 mps 722 mmHg 98%
02:00 +1°C° 0.1 mm 1 mps 722 mmHg 98%
03:00 +1°C° 0.1 mm 1 mps 721 mmHg 98%
04:00 +1°C° 0.1 mm 1 mps 721 mmHg 98%
05:00 +1°C° 0 mm 1 mps 721 mmHg 97%
06:00 +1°C° 0 mm 1 mps 721 mmHg 97%
07:00 +1°C° 0 mm 1 mps 721 mmHg 97%
08:00 -1°C° 0 mm 2 mps 721 mmHg 94%
09:00 -1°C° 0 mm 2 mps 720 mmHg 90%
10:00 +1°C° 0 mm 2 mps 720 mmHg 87%
11:00 +1°C° 0 mm 2 mps 720 mmHg 85%
12:00 +1°C° 0 mm 2 mps 719 mmHg 82%
13:00 +2°C° 0 mm 2 mps 719 mmHg 80%
14:00 +2°C° 0 mm 2 mps 719 mmHg 82%
15:00 +2°C° 0 mm 1 mps 719 mmHg 83%
16:00 +2°C° 0 mm 1 mps 719 mmHg 85%
17:00 +2°C° 0 mm 1 mps 719 mmHg 87%
18:00 0°C° 0 mm 0 mps 719 mmHg 88%
19:00 0°C° 0 mm 0 mps 719 mmHg 90%
20:00 0°C° 0 mm 0 mps 719 mmHg 90%
21:00 -1°C° 0 mm 0 mps 719 mmHg 91%
22:00 0°C° 0 mm 1 mps 719 mmHg 92%
23:00 0°C° 0 mm 1 mps 719 mmHg 93%

Tomorrow, 3 December, Thursday

Time Temperature Precipitation Wind Pressure Humidity
00:00 -1°C° 0 mm 1 mps 718 mmHg 94%
01:00 -1°C° 0 mm 1 mps 718 mmHg 95%
02:00 -1°C° 0 mm 1 mps 718 mmHg 94%
03:00 -1°C° 0 mm 1 mps 717 mmHg 93%
04:00 -1°C° 0 mm 1 mps 717 mmHg 92%
05:00 -2°C° 0 mm 1 mps 717 mmHg 92%
06:00 -2°C° 0 mm 1 mps 717 mmHg 92%
07:00 -2°C° 0 mm 1 mps 716 mmHg 92%
08:00 -1°C° 0 mm 1 mps 716 mmHg 88%
09:00 0°C° 0 mm 1 mps 716 mmHg 84%
10:00 +1°C° 0 mm 1 mps 715 mmHg 81%
11:00 +2°C° 0 mm 1 mps 715 mmHg 77%
12:00 +3°C° 0 mm 1 mps 714 mmHg 73%
13:00 +3°C° 0 mm 2 mps 713 mmHg 70%
14:00 +3°C° 0 mm 1 mps 713 mmHg 74%
15:00 +3°C° 0 mm 1 mps 712 mmHg 79%
16:00 +2°C° 0 mm 1 mps 711 mmHg 83%
17:00 +1°C° 0 mm 1 mps 711 mmHg 84%
18:00 0°C° 0 mm 1 mps 710 mmHg 85%
19:00 0°C° 0 mm 1 mps 710 mmHg 86%
20:00 0°C° 0 mm 1 mps 709 mmHg 83%
21:00 0°C° 0 mm 1 mps 709 mmHg 81%
22:00 0°C° 0 mm 0 mps 709 mmHg 79%
23:00 +1°C° 0 mm 1 mps 708 mmHg 78%

Day after tomorrow, 4 December, Friday

Time Temperature Precipitation Wind Pressure Humidity
00:00 +1°C° 0 mm 1 mps 707 mmHg 77%
01:00 +1°C° 0 mm 1 mps 706 mmHg 76%
02:00 +1°C° 0 mm 1 mps 706 mmHg 76%
03:00 +1°C° 0 mm 1 mps 705 mmHg 75%
04:00 0°C° 0 mm 0 mps 705 mmHg 75%
05:00 +1°C° 0 mm 1 mps 704 mmHg 75%
06:00 +1°C° 0 mm 1 mps 704 mmHg 76%
07:00 +1°C° 0 mm 1 mps 703 mmHg 77%
08:00 +2°C° 0 mm 1 mps 703 mmHg 74%
09:00 +3°C° 0 mm 1 mps 703 mmHg 72%
10:00 +3°C° 0 mm 1 mps 703 mmHg 69%
11:00 +4°C° 0 mm 1 mps 703 mmHg 67%
12:00 +5°C° 0 mm 1 mps 702 mmHg 65%
13:00 +5°C° 0 mm 0 mps 702 mmHg 63%
14:00 +4°C° 0 mm 0 mps 702 mmHg 69%
15:00 +3°C° 0 mm 0 mps 702 mmHg 74%
16:00 +2°C° 0 mm 0 mps 702 mmHg 80%
17:00 +2°C° 0 mm 1 mps 702 mmHg 82%
18:00 +1°C° 0 mm 1 mps 702 mmHg 85%
19:00 +1°C° 0 mm 1 mps 702 mmHg 88%
20:00 +1°C° 0.1 mm 1 mps 703 mmHg 89%
21:00 +1°C° 0.1 mm 1 mps 703 mmHg 91%
22:00 +2°C° 0.1 mm 1 mps 703 mmHg 92%
23:00 +2°C° 0.5 mm 1 mps 704 mmHg 94%

5 December, Saturday

Time Temperature Precipitation Wind Pressure Humidity
00:00 +2°C° 0.5 mm 1 mps 704 mmHg 96%
01:00 +2°C° 0.5 mm 1 mps 704 mmHg 99%
02:00 +1°C° 0.6 mm 0 mps 704 mmHg 99%
03:00 +1°C° 0.6 mm 0 mps 704 mmHg 99%
04:00 +1°C° 0.6 mm 0 mps 705 mmHg 99%
05:00 +1°C° 0.3 mm 0 mps 705 mmHg 99%
06:00 +2°C° 0.3 mm 1 mps 704 mmHg 99%
07:00 +2°C° 0.3 mm 1 mps 704 mmHg 99%
08:00 +2°C° 1.3 mm 1 mps 704 mmHg 99%
09:00 +2°C° 1.3 mm 1 mps 704 mmHg 99%
10:00 +2°C° 1.3 mm 1 mps 704 mmHg 98%
11:00 +2°C° 1.2 mm 1 mps 704 mmHg 99%
12:00 +2°C° 1.2 mm 1 mps 704 mmHg 99%
13:00 +1°C° 1.2 mm 0 mps 704 mmHg 99%
14:00 +1°C° 0.7 mm 0 mps 705 mmHg 99%
15:00 +1°C° 0.7 mm 0 mps 705 mmHg 99%
16:00 +1°C° 0.7 mm 0 mps 705 mmHg 99%
17:00 +1°C° 0.3 mm 0 mps 706 mmHg 99%
18:00 +1°C° 0.3 mm 0 mps 706 mmHg 99%
19:00 +2°C° 0.3 mm 1 mps 707 mmHg 99%
20:00 +2°C° 0 mm 1 mps 707 mmHg 99%
21:00 +2°C° 0 mm 1 mps 707 mmHg 99%
22:00 +1°C° 0 mm 1 mps 707 mmHg 98%
23:00 +1°C° 0 mm 1 mps 707 mmHg 98%

6 December, Sunday

Time Temperature Precipitation Wind Pressure Humidity
00:00 0°C° 0 mm 0 mps 707 mmHg 98%
01:00 0°C° 0 mm 0 mps 707 mmHg 97%
02:00 -1°C° 0 mm 0 mps 707 mmHg 97%
03:00 -1°C° 0 mm 0 mps 707 mmHg 97%
04:00 0°C° 0 mm 1 mps 707 mmHg 97%
05:00 -1°C° 0 mm 1 mps 707 mmHg 96%
06:00 -1°C° 0 mm 1 mps 707 mmHg 96%
07:00 -2°C° 0 mm 1 mps 707 mmHg 96%
08:00 -1°C° 0 mm 1 mps 707 mmHg 95%
09:00 -2°C° 0 mm 0 mps 707 mmHg 94%
10:00 -1°C° 0 mm 0 mps 707 mmHg 93%
11:00 0°C° 0 mm 0 mps 707 mmHg 92%
12:00 +1°C° 0 mm 0 mps 707 mmHg 91%
13:00 +1°C° 0 mm 0 mps 707 mmHg 90%
14:00 +1°C° 0 mm 0 mps 707 mmHg 92%
15:00 0°C° 0 mm 0 mps 707 mmHg 93%
16:00 0°C° 0 mm 1 mps 708 mmHg 94%
17:00 -2°C° 0 mm 0 mps 708 mmHg 94%
18:00 -3°C° 0 mm 0 mps 709 mmHg 94%
19:00 -3°C° 0 mm 0 mps 709 mmHg 94%
20:00 -4°C° 0 mm 0 mps 709 mmHg 94%
21:00 -4°C° 0 mm 0 mps 710 mmHg 93%
22:00 -4°C° 0 mm 0 mps 710 mmHg 93%
23:00 -4°C° 0 mm 0 mps 710 mmHg 92%

7 December, Monday

Time Temperature Precipitation Wind Pressure Humidity
00:00 -4°C° 0 mm 0 mps 710 mmHg 92%
01:00 -4°C° 0 mm 0 mps 711 mmHg 92%
02:00 -3°C° 0 mm 1 mps 711 mmHg 93%
03:00 -3°C° 0 mm 1 mps 712 mmHg 93%
04:00 -3°C° 0 mm 1 mps 712 mmHg 94%
05:00 -3°C° 0 mm 1 mps 712 mmHg 95%
06:00 -2°C° 0 mm 1 mps 713 mmHg 95%
07:00 -2°C° 0 mm 1 mps 713 mmHg 96%
08:00 -1°C° 0.1 mm 1 mps 714 mmHg 95%
09:00 0°C° 0.1 mm 1 mps 714 mmHg 95%
10:00 +1°C° 0.1 mm 1 mps 715 mmHg 94%
11:00 +1°C° 0 mm 1 mps 715 mmHg 93%
12:00 +2°C° 0 mm 1 mps 715 mmHg 92%
13:00 +3°C° 0 mm 1 mps 715 mmHg 90%
14:00 +2°C° 0 mm 1 mps 715 mmHg 91%
15:00 +1°C° 0 mm 1 mps 716 mmHg 92%
16:00 0°C° 0 mm 0 mps 716 mmHg 93%
17:00 -1°C° 0 mm 0 mps 716 mmHg 93%
18:00 -1°C° 0 mm 1 mps 716 mmHg 93%
19:00 -2°C° 0 mm 1 mps 717 mmHg 93%
20:00 -2°C° 0 mm 1 mps 717 mmHg 93%
21:00 -2°C° 0 mm 1 mps 717 mmHg 93%
22:00 -3°C° 0 mm 1 mps 717 mmHg 92%
23:00 -3°C° 0 mm 1 mps 717 mmHg 92%
Show more